ELY2522 LKPR-LLBG

Flight info

Callsign ELY2522
Flight time N/A
Altitude 39000
Route VOZ DCT LIKSA DCT PEPIK DCT ALAMU DCT PARAK DCT NISVA DCT NIKTI DCT MES UL609 ALKIS L609 ZUKKO
Aircraft B738/M-SDE2E3FGHIJ1LORVWXY/LB1

Departure

Time 2026-05-06 10:32
Airport Václav Havel Airport Prague (LKPR)

Arrival

Time N/A
Airport Ben Gurion International Airport (LLBG)
Time Latitude Longitude Altitude Speed Heading
2026-05-06 10:00 50.10962 14.26847 1169 ft 0 kts 65°
2026-05-06 10:21 50.10955 14.26824 1173 ft 4 kts 67°
2026-05-06 10:21 50.10945 14.26784 1170 ft 4 kts 69°
2026-05-06 10:21 50.10935 14.26745 1173 ft 4 kts 58°
2026-05-06 10:21 50.10922 14.26722 1170 ft 4 kts 348°
2026-05-06 10:22 50.10922 14.26719 1180 ft 4 kts 319°
2026-05-06 10:22 50.10942 14.26692 1169 ft 4 kts 322°
2026-05-06 10:22 50.10960 14.26674 1173 ft 2 kts 328°
2026-05-06 10:22 50.10983 14.26652 1172 ft 4 kts 328°
2026-05-06 10:23 50.11006 14.26629 1174 ft 4 kts 327°
2026-05-06 10:23 50.11017 14.26618 1173 ft 0 kts 327°
2026-05-06 10:25 50.11041 14.26584 1173 ft 10 kts 303°
2026-05-06 10:26 50.11025 14.26491 1169 ft 10 kts 217°
2026-05-06 10:26 50.10966 14.26429 1171 ft 12 kts 214°
2026-05-06 10:26 50.10870 14.26326 1171 ft 21 kts 214°
2026-05-06 10:26 50.10745 14.26192 1178 ft 22 kts 214°
2026-05-06 10:27 50.10624 14.26066 1169 ft 19 kts 212°
2026-05-06 10:27 50.10535 14.25979 1174 ft 11 kts 203°
2026-05-06 10:27 50.10478 14.26020 1174 ft 10 kts 128°
2026-05-06 10:27 50.10425 14.26131 1171 ft 18 kts 127°
2026-05-06 10:28 50.10332 14.26323 1174 ft 27 kts 127°
2026-05-06 10:28 50.10213 14.26570 1171 ft 29 kts 127°
2026-05-06 10:28 50.10097 14.26810 1184 ft 27 kts 127°
2026-05-06 10:28 50.09988 14.27036 1196 ft 27 kts 127°
2026-05-06 10:29 50.09873 14.27272 1201 ft 27 kts 127°
2026-05-06 10:29 50.09748 14.27473 1204 ft 25 kts 135°
2026-05-06 10:29 50.09619 14.27672 1209 ft 26 kts 135°
2026-05-06 10:29 50.09492 14.27867 1213 ft 25 kts 135°
2026-05-06 10:30 50.09374 14.28048 1214 ft 23 kts 135°
2026-05-06 10:30 50.09263 14.28217 1212 ft 19 kts 135°
2026-05-06 10:30 50.09180 14.28284 1210 ft 13 kts 185°
2026-05-06 10:30 50.09108 14.28208 1210 ft 13 kts 234°
2026-05-06 10:31 50.09093 14.28075 1207 ft 12 kts 288°
2026-05-06 10:31 50.09153 14.27945 1210 ft 29 kts 307°
2026-05-06 10:31 50.09421 14.27389 1209 ft 98 kts 307°
2026-05-06 10:31 50.09954 14.26284 1197 ft 155 kts 307°
2026-05-06 10:32 50.10651 14.24861 1647 ft 164 kts 304°
2026-05-06 10:32 50.11322 14.23469 2407 ft 163 kts 303°
2026-05-06 10:32 50.12008 14.22055 3067 ft 165 kts 303°
2026-05-06 10:32 50.12701 14.20616 3768 ft 163 kts 303°
2026-05-06 10:33 50.13388 14.19183 4417 ft 165 kts 304°
2026-05-06 10:33 50.14121 14.17721 4881 ft 180 kts 304°
2026-05-06 10:33 50.14921 14.16058 5148 ft 202 kts 303°
2026-05-06 10:33 50.15791 14.14195 5382 ft 222 kts 303°
2026-05-06 10:34 50.16742 14.12187 5584 ft 246 kts 303°
2026-05-06 10:34 50.17789 14.09909 5982 ft 262 kts 296°
2026-05-06 10:34 50.18254 14.07202 6764 ft 260 kts 268°
2026-05-06 10:34 50.17813 14.04493 7585 ft 259 kts 241°
2026-05-06 10:35 50.16667 14.02348 8351 ft 264 kts 221°
2026-05-06 10:35 50.15159 14.00663 9092 ft 269 kts 216°
2026-05-06 10:35 50.13551 13.99086 9773 ft 277 kts 206°
2026-05-06 10:35 50.11647 13.98448 10408 ft 292 kts 182°
2026-05-06 10:36 50.09579 13.99119 10780 ft 317 kts 162°
2026-05-06 10:36 50.07548 14.00592 11414 ft 325 kts 157°
2026-05-06 10:36 50.05513 14.02103 12181 ft 328 kts 159°
2026-05-06 10:36 50.03435 14.03581 13029 ft 329 kts 159°
2026-05-06 10:37 50.01332 14.05052 13805 ft 333 kts 160°
2026-05-06 10:37 49.99194 14.06536 14600 ft 337 kts 160°
2026-05-06 10:37 49.97068 14.08011 15416 ft 340 kts 160°
2026-05-06 10:37 49.94898 14.09519 16185 ft 343 kts 160°
2026-05-06 10:38 49.92704 14.11043 16920 ft 347 kts 160°
2026-05-06 10:38 49.90492 14.12578 17649 ft 350 kts 160°
2026-05-06 10:38 49.88256 14.14128 18336 ft 354 kts 160°
2026-05-06 10:38 49.86037 14.15862 18990 ft 364 kts 149°
2026-05-06 10:39 49.84196 14.18663 19622 ft 377 kts 133°
2026-05-06 10:39 49.82598 14.21905 20257 ft 382 kts 131°
2026-05-06 10:39 49.81024 14.25205 20841 ft 387 kts 131°
2026-05-06 10:39 49.79418 14.28581 21414 ft 391 kts 131°
2026-05-06 10:40 49.77784 14.31984 22000 ft 395 kts 131°
2026-05-06 10:40 49.76131 14.35395 22555 ft 398 kts 132°
2026-05-06 10:40 49.74457 14.38822 23089 ft 402 kts 132°
2026-05-06 10:40 49.72756 14.42290 23615 ft 405 kts 132°
2026-05-06 10:41 49.71042 14.45777 24122 ft 409 kts 132°
2026-05-06 10:41 49.69312 14.49292 24624 ft 412 kts 132°
2026-05-06 10:41 49.67568 14.52830 25137 ft 415 kts 133°
2026-05-06 10:41 49.65868 14.56394 25626 ft 419 kts 130°
2026-05-06 10:42 49.64266 14.60207 26106 ft 424 kts 128°
2026-05-06 10:42 49.62715 14.64097 26538 ft 427 kts 127°
2026-05-06 10:42 49.61157 14.68026 26947 ft 430 kts 127°
2026-05-06 10:42 49.59577 14.71967 27390 ft 432 kts 128°
2026-05-06 10:43 49.57993 14.75858 27802 ft 434 kts 128°
2026-05-06 10:43 49.56374 14.79805 28201 ft 437 kts 128°
2026-05-06 10:43 49.54745 14.83755 28602 ft 438 kts 129°
2026-05-06 10:44 49.51575 14.91887 29346 ft 447 kts 124°
2026-05-06 10:44 49.50165 14.96176 29722 ft 450 kts 122°
2026-05-06 10:44 49.48795 15.00531 30070 ft 452 kts 122°
2026-05-06 10:44 49.47443 15.04848 30394 ft 454 kts 122°
2026-05-06 10:45 49.46055 15.09229 30700 ft 457 kts 122°
2026-05-06 10:45 49.44640 15.13633 30998 ft 459 kts 122°
2026-05-06 10:45 49.43208 15.18030 31279 ft 461 kts 123°
2026-05-06 10:45 49.41760 15.22442 31542 ft 463 kts 123°
2026-05-06 10:46 49.40319 15.26811 31834 ft 464 kts 123°
2026-05-06 10:46 49.38853 15.31246 32209 ft 463 kts 123°
2026-05-06 10:46 49.37392 15.35659 32639 ft 461 kts 123°
2026-05-06 10:46 49.35935 15.40054 33002 ft 461 kts 123°
2026-05-06 10:47 49.34495 15.44389 33298 ft 461 kts 123°
2026-05-06 10:47 49.33029 15.48792 33586 ft 462 kts 123°
2026-05-06 10:47 49.31564 15.53190 33928 ft 461 kts 123°
2026-05-06 10:47 49.30102 15.57570 34261 ft 460 kts 123°
2026-05-06 10:48 49.28655 15.61895 34579 ft 460 kts 123°
2026-05-06 10:48 49.27194 15.66258 34892 ft 459 kts 123°
2026-05-06 10:48 49.25733 15.70612 35200 ft 459 kts 123°
2026-05-06 10:48 49.24275 15.74953 35522 ft 458 kts 123°
2026-05-06 10:49 49.22830 15.79244 35791 ft 458 kts 123°
2026-05-06 10:49 49.21365 15.83586 36066 ft 458 kts 123°
2026-05-06 10:49 49.19897 15.87929 36323 ft 457 kts 123°
2026-05-06 10:49 49.18450 15.92207 36536 ft 458 kts 123°
2026-05-06 10:50 49.16984 15.96539 36787 ft 458 kts 123°
2026-05-06 10:50 49.15521 16.00849 37110 ft 456 kts 123°
2026-05-06 10:50 49.14061 16.05139 37371 ft 455 kts 123°
2026-05-06 10:50 49.12597 16.09427 37588 ft 455 kts 123°
2026-05-06 10:51 49.11131 16.13707 37840 ft 454 kts 123°
2026-05-06 10:51 49.09664 16.17972 38095 ft 453 kts 123°
2026-05-06 10:51 49.08203 16.22233 38322 ft 453 kts 123°
2026-05-06 10:51 49.06742 16.26488 38539 ft 452 kts 123°
2026-05-06 10:52 49.05300 16.30679 38791 ft 451 kts 123°
2026-05-06 10:52 49.02360 16.39184 38857 ft 454 kts 123°
2026-05-06 10:53 48.99413 16.47700 38837 ft 451 kts 123°
2026-05-06 10:53 48.96523 16.56039 38838 ft 446 kts 123°
2026-05-06 10:54 48.93620 16.64368 38833 ft 444 kts 123°
2026-05-06 10:54 48.90734 16.72617 38833 ft 443 kts 123°
2026-05-06 10:55 48.87831 16.80894 38836 ft 442 kts 123°
2026-05-06 10:55 48.84930 16.89143 38845 ft 443 kts 123°
2026-05-06 10:56 48.82015 16.97409 38845 ft 444 kts 123°
2026-05-06 10:56 48.79034 17.05550 38839 ft 441 kts 130°
2026-05-06 10:57 48.74926 17.12252 38856 ft 429 kts 147°
2026-05-06 10:57 48.70245 17.17889 38850 ft 431 kts 147°
2026-05-06 10:58 48.65532 17.23552 38853 ft 433 kts 147°
2026-05-06 10:58 48.60844 17.29230 38860 ft 434 kts 147°
2026-05-06 10:59 48.56126 17.34961 38860 ft 435 kts 147°
2026-05-06 10:59 48.51431 17.40660 38860 ft 435 kts 147°
2026-05-06 11:00 48.46707 17.46381 38866 ft 435 kts 147°
2026-05-06 11:00 48.41983 17.52086 38869 ft 433 kts 147°
2026-05-06 11:01 48.37281 17.57750 38871 ft 432 kts 147°
2026-05-06 11:01 48.32604 17.63364 38871 ft 432 kts 147°
2026-05-06 11:02 48.27907 17.68996 38866 ft 430 kts 147°
2026-05-06 11:02 48.23252 17.74565 38869 ft 430 kts 147°
2026-05-06 11:03 48.18564 17.80155 38879 ft 429 kts 147°
2026-05-06 11:03 48.13915 17.85685 38880 ft 429 kts 147°
2026-05-06 11:04 48.09231 17.91244 38895 ft 428 kts 147°
2026-05-06 11:04 48.05349 17.95841 38899 ft 428 kts 147°
2026-05-06 11:05 48.00667 18.01376 38901 ft 428 kts 147°
2026-05-06 11:05 47.95976 18.06905 38912 ft 429 kts 147°
2026-05-06 11:06 47.91307 18.12397 38909 ft 431 kts 147°
2026-05-06 11:06 47.86589 18.17935 38903 ft 431 kts 147°
2026-05-06 11:07 47.81893 18.23434 38912 ft 432 kts 147°
2026-05-06 11:07 47.77159 18.28965 38904 ft 432 kts 147°
2026-05-06 11:08 47.72437 18.34467 38905 ft 433 kts 147°
2026-05-06 11:08 47.67682 18.39993 38927 ft 434 kts 147°
2026-05-06 11:09 47.62908 18.45527 38904 ft 435 kts 147°
2026-05-06 11:09 47.58138 18.51048 38913 ft 435 kts 147°
2026-05-06 11:10 47.53391 18.56530 38913 ft 435 kts 147°
2026-05-06 11:10 47.48613 18.62034 38921 ft 434 kts 147°
2026-05-06 11:11 47.43868 18.67488 38933 ft 434 kts 147°
2026-05-06 11:11 47.39075 18.72984 38931 ft 435 kts 147°
2026-05-06 11:12 47.34275 18.78474 38931 ft 436 kts 147°
2026-05-06 11:12 47.29504 18.83918 38939 ft 437 kts 147°
2026-05-06 11:13 47.24675 18.89415 38946 ft 438 kts 147°
2026-05-06 11:13 47.19865 18.94878 38943 ft 439 kts 148°
2026-05-06 11:14 47.15035 19.00356 38943 ft 439 kts 148°
2026-05-06 11:14 47.10187 19.05835 38944 ft 439 kts 148°
2026-05-06 11:15 47.05331 19.11307 38948 ft 440 kts 148°
2026-05-06 11:15 47.00464 19.16783 38947 ft 440 kts 148°
2026-05-06 11:16 46.95628 19.22213 38953 ft 441 kts 148°
2026-05-06 11:16 46.90757 19.27671 38951 ft 442 kts 148°
2026-05-06 11:17 46.85868 19.33133 38959 ft 442 kts 148°
2026-05-06 11:17 46.80973 19.38588 38963 ft 443 kts 148°
2026-05-06 11:18 46.76082 19.44025 38962 ft 444 kts 148°
2026-05-06 11:18 46.71163 19.49484 38962 ft 444 kts 148°
2026-05-06 11:19 46.66235 19.54939 38962 ft 445 kts 148°
2026-05-06 11:19 46.61314 19.60369 38965 ft 446 kts 148°
2026-05-06 11:20 46.56359 19.65830 38964 ft 447 kts 148°
2026-05-06 11:20 46.51389 19.71294 38962 ft 448 kts 148°
2026-05-06 11:21 46.46412 19.76752 38964 ft 448 kts 148°
2026-05-06 11:21 46.41457 19.82172 38962 ft 449 kts 148°
2026-05-06 11:22 46.36460 19.87629 38963 ft 449 kts 148°
2026-05-06 11:22 46.31488 19.93041 38965 ft 449 kts 148°
2026-05-06 11:23 46.26486 19.98476 38965 ft 450 kts 148°
2026-05-06 11:23 46.21469 20.03916 38961 ft 450 kts 148°
2026-05-06 11:24 46.16448 20.09341 38966 ft 450 kts 149°
2026-05-06 11:24 46.11275 20.14264 38970 ft 447 kts 153°
2026-05-06 11:25 46.05949 20.18947 38973 ft 447 kts 154°
2026-05-06 11:25 46.00663 20.23608 38972 ft 448 kts 153°
2026-05-06 11:26 45.95358 20.28338 38981 ft 447 kts 153°
2026-05-06 11:26 45.90070 20.33074 38986 ft 447 kts 153°
2026-05-06 11:27 45.84806 20.37781 38991 ft 447 kts 153°
2026-05-06 11:27 45.79527 20.42489 38992 ft 448 kts 153°
2026-05-06 11:28 45.74232 20.47201 38994 ft 448 kts 153°
2026-05-06 11:28 45.68933 20.51899 38993 ft 448 kts 153°
2026-05-06 11:29 45.63650 20.56555 39000 ft 448 kts 153°
2026-05-06 11:29 45.58335 20.61251 38983 ft 448 kts 153°
2026-05-06 11:30 45.53018 20.65937 38986 ft 449 kts 153°
2026-05-06 11:30 45.47734 20.70593 38994 ft 449 kts 152°
2026-05-06 11:31 45.42402 20.75290 38993 ft 450 kts 152°
2026-05-06 11:31 45.37059 20.79972 38989 ft 450 kts 152°
2026-05-06 11:32 45.31736 20.84623 38992 ft 451 kts 152°
2026-05-06 11:32 45.26375 20.89293 38996 ft 452 kts 152°
2026-05-06 11:33 45.20998 20.93969 38987 ft 452 kts 152°
2026-05-06 11:33 45.15657 20.98608 38991 ft 453 kts 152°
2026-05-06 11:34 45.10270 21.03271 38994 ft 454 kts 152°
2026-05-06 11:34 45.04866 21.07941 38992 ft 454 kts 152°
2026-05-06 11:35 44.99503 21.12569 38989 ft 454 kts 152°
2026-05-06 11:35 44.94092 21.17232 38985 ft 455 kts 152°
2026-05-06 11:36 44.88671 21.21881 38991 ft 455 kts 152°
2026-05-06 11:36 44.83283 21.26488 38988 ft 455 kts 152°
2026-05-06 11:37 44.77859 21.31118 38993 ft 456 kts 152°
2026-05-06 11:37 44.72427 21.35752 39005 ft 456 kts 152°
2026-05-06 11:38 44.67024 21.40350 38992 ft 456 kts 152°
2026-05-06 11:38 44.61581 21.44968 38997 ft 457 kts 152°
2026-05-06 11:39 44.56118 21.49593 38997 ft 457 kts 152°
2026-05-06 11:39 44.50704 21.54167 38992 ft 457 kts 152°
2026-05-06 11:40 44.45249 21.58767 39004 ft 458 kts 152°
2026-05-06 11:40 44.39779 21.63369 39006 ft 458 kts 152°
2026-05-06 11:41 44.34337 21.67938 39004 ft 459 kts 152°
2026-05-06 11:41 44.28851 21.72533 39001 ft 459 kts 152°
2026-05-06 11:42 44.23368 21.77115 39002 ft 460 kts 152°
2026-05-06 11:42 44.17894 21.81681 39012 ft 460 kts 152°
2026-05-06 11:43 44.12384 21.86262 39005 ft 461 kts 152°
2026-05-06 11:43 44.06895 21.90822 39010 ft 461 kts 152°
2026-05-06 11:44 43.98614 21.97677 39012 ft 461 kts 152°
2026-05-06 11:44 43.93127 22.02209 38998 ft 462 kts 152°
2026-05-06 11:45 43.87589 22.06773 39004 ft 462 kts 152°
2026-05-06 11:45 43.82080 22.11302 39005 ft 462 kts 152°
2026-05-06 11:46 43.76536 22.15850 39000 ft 462 kts 152°
2026-05-06 11:46 43.70988 22.20392 38990 ft 462 kts 152°
2026-05-06 11:47 43.65478 22.24891 38999 ft 462 kts 152°
2026-05-06 11:47 43.59920 22.29423 39005 ft 462 kts 152°
2026-05-06 11:48 43.54408 22.33904 39002 ft 462 kts 152°
2026-05-06 11:48 43.48860 22.38409 38995 ft 462 kts 152°
2026-05-06 11:49 43.43313 22.42900 38998 ft 461 kts 152°
2026-05-06 11:49 43.37802 22.47355 39003 ft 462 kts 152°
2026-05-06 11:50 43.32244 22.51833 38996 ft 463 kts 152°
2026-05-06 11:50 43.26683 22.56307 39006 ft 463 kts 152°
2026-05-06 11:51 43.21153 22.60749 39010 ft 463 kts 152°
2026-05-06 11:51 43.15590 22.65208 39005 ft 463 kts 152°
2026-05-06 11:52 43.10040 22.69645 39027 ft 464 kts 152°
2026-05-06 11:52 43.04452 22.74104 39018 ft 464 kts 152°
2026-05-06 11:53 42.99808 22.77804 39034 ft 464 kts 152°
2026-05-06 11:53 42.93440 22.83293 39035 ft 466 kts 147°
2026-05-06 11:54 42.89032 22.87532 39032 ft 466 kts 146°
2026-05-06 11:54 42.83732 22.92660 39039 ft 466 kts 146°
2026-05-06 11:55 42.78445 22.97709 39031 ft 466 kts 146°
2026-05-06 11:55 42.73114 23.02761 39043 ft 467 kts 147°
2026-05-06 11:56 42.67760 23.07813 39050 ft 468 kts 147°
2026-05-06 11:56 42.62399 23.12863 39046 ft 469 kts 147°
2026-05-06 11:57 42.57050 23.17891 39052 ft 470 kts 147°
2026-05-06 11:57 42.51649 23.22957 39046 ft 472 kts 146°
2026-05-06 11:58 42.46272 23.27985 39047 ft 472 kts 146°
2026-05-06 11:58 42.40856 23.33047 39045 ft 473 kts 146°
2026-05-06 11:59 42.35421 23.38114 39046 ft 474 kts 146°
2026-05-06 11:59 42.29983 23.43174 39049 ft 474 kts 146°
2026-05-06 12:00 42.24529 23.48239 39051 ft 475 kts 146°
2026-05-06 12:00 42.19094 23.53270 39047 ft 477 kts 146°
2026-05-06 12:01 42.13608 23.58337 39044 ft 478 kts 146°
2026-05-06 12:01 42.08142 23.63377 39039 ft 478 kts 146°
2026-05-06 12:02 42.02648 23.68433 39042 ft 478 kts 146°
2026-05-06 12:02 41.97144 23.73492 39039 ft 479 kts 146°
2026-05-06 12:03 41.91630 23.78544 39042 ft 479 kts 146°
2026-05-06 12:03 41.86143 23.83558 39050 ft 479 kts 146°
2026-05-06 12:04 41.80620 23.88597 39046 ft 480 kts 146°
2026-05-06 12:04 41.75114 23.93610 39035 ft 480 kts 146°
2026-05-06 12:05 41.69573 23.98644 39035 ft 480 kts 147°
2026-05-06 12:05 41.64040 24.03662 39037 ft 480 kts 146°
2026-05-06 12:06 41.58504 24.08675 39027 ft 479 kts 146°
2026-05-06 12:06 41.52893 24.13370 39009 ft 477 kts 156°
2026-05-06 12:07 41.46794 24.16857 39037 ft 476 kts 159°
2026-05-06 12:07 41.40703 24.20186 39031 ft 475 kts 159°
2026-05-06 12:08 41.34585 24.23588 39040 ft 475 kts 159°
2026-05-06 12:08 41.28533 24.27003 39044 ft 474 kts 159°
2026-05-06 12:09 41.22453 24.30444 39046 ft 474 kts 159°
2026-05-06 12:09 41.16407 24.33860 39046 ft 474 kts 159°
2026-05-06 12:10 41.10325 24.37287 39051 ft 474 kts 159°
2026-05-06 12:10 41.04276 24.40686 39044 ft 474 kts 159°
2026-05-06 12:11 40.98180 24.44106 39043 ft 475 kts 159°
2026-05-06 12:11 40.92131 24.47492 39053 ft 474 kts 159°
2026-05-06 12:12 40.86019 24.50906 39047 ft 475 kts 159°
2026-05-06 12:12 40.79963 24.54283 39046 ft 475 kts 159°
2026-05-06 12:13 40.73860 24.57680 39052 ft 475 kts 159°
2026-05-06 12:13 40.67754 24.61071 39042 ft 476 kts 159°
2026-05-06 12:14 40.61641 24.64457 39059 ft 474 kts 159°
2026-05-06 12:14 40.55586 24.67807 39047 ft 473 kts 159°
2026-05-06 12:15 40.49518 24.71156 39050 ft 471 kts 159°
2026-05-06 12:15 40.43469 24.74490 39050 ft 469 kts 159°
2026-05-06 12:16 40.37495 24.77776 39062 ft 468 kts 159°
2026-05-06 12:16 40.31485 24.81075 39063 ft 466 kts 159°
2026-05-06 12:17 40.25494 24.84355 39060 ft 466 kts 159°
2026-05-06 12:17 40.19548 24.87605 39067 ft 465 kts 159°
2026-05-06 12:18 40.13552 24.90875 39075 ft 466 kts 159°
2026-05-06 12:18 40.07551 24.94144 39079 ft 467 kts 159°
2026-05-06 12:19 40.01537 24.97415 39072 ft 469 kts 159°
2026-05-06 12:19 39.95536 25.00669 39078 ft 471 kts 159°
2026-05-06 12:20 39.89458 25.03961 39080 ft 473 kts 159°
2026-05-06 12:20 39.83360 25.07258 39078 ft 475 kts 159°
2026-05-06 12:21 39.77275 25.10541 39072 ft 477 kts 159°
2026-05-06 12:21 39.71136 25.13845 39075 ft 477 kts 159°
2026-05-06 12:22 39.64978 25.17153 39073 ft 478 kts 159°
2026-05-06 12:22 39.58865 25.20432 39073 ft 477 kts 159°
2026-05-06 12:23 39.52708 25.23728 39071 ft 477 kts 159°
2026-05-06 12:23 39.46607 25.26987 39078 ft 476 kts 159°
2026-05-06 12:24 39.40476 25.30257 39082 ft 475 kts 159°
2026-05-06 12:24 39.34356 25.33514 39082 ft 474 kts 159°
2026-05-06 12:25 39.28288 25.36738 39080 ft 474 kts 160°
2026-05-06 12:25 39.22194 25.39969 39082 ft 473 kts 159°
2026-05-06 12:26 39.16094 25.43196 39083 ft 473 kts 160°
2026-05-06 12:26 39.10028 25.46401 39084 ft 473 kts 160°
2026-05-06 12:27 39.03917 25.49624 39080 ft 473 kts 160°
2026-05-06 12:27 38.97835 25.52824 39085 ft 473 kts 160°
2026-05-06 12:28 38.91714 25.56040 39081 ft 474 kts 160°
2026-05-06 12:28 38.85646 25.59220 39086 ft 474 kts 160°
2026-05-06 12:29 38.79513 25.62430 39084 ft 475 kts 160°
2026-05-06 12:29 38.73388 25.65630 39083 ft 475 kts 160°
2026-05-06 12:30 38.67282 25.68813 39085 ft 476 kts 160°
2026-05-06 12:30 38.61137 25.72011 39083 ft 476 kts 160°
2026-05-06 12:31 38.54985 25.75206 39077 ft 476 kts 160°
2026-05-06 12:31 38.48866 25.78379 39075 ft 477 kts 160°
2026-05-06 12:32 38.42698 25.81572 39073 ft 478 kts 160°
2026-05-06 12:32 38.36529 25.84761 39078 ft 478 kts 160°
2026-05-06 12:33 38.30390 25.87927 39074 ft 479 kts 160°
2026-05-06 12:33 38.24364 25.91604 39065 ft 481 kts 147°
2026-05-06 12:34 38.19242 25.97002 39081 ft 482 kts 137°
2026-05-06 12:34 38.14235 26.02705 39072 ft 483 kts 138°